Weather History for KOVL - January, 2014

Change the Weather History Date:

Friday, January 3, 2014

  Actual Average (KRWF) Record (KRWF)
Temperature  
Mean Temperature 12 °F -  
Max Temperature 33 °F 21 °F 45 °F (1962)
Min Temperature -9 °F 4 °F -17 °F (1969)
Degree Days  
Heating Degree Days 53    
Moisture  
Dew Point 11 °F    
Average Humidity 81    
Maximum Humidity 93    
Minimum Humidity 65    
Precipitation  
Precipitation 0.06 in - - ()
Sea Level Pressure  
Sea Level Pressure 29.71 in    
Wind  
Wind Speed 14 mph (South)    
Max Wind Speed 25 mph    
Max Gust Speed 31 mph    
Visibility 7 miles    
Events Snow    
Averages and records for this station are not official NWS values.
T = Trace of Precipitation, MM = Missing Value Source: NWS Daily Summary

Daily Weather History Graph

Daily Weather History Graph

Search for Another Location

Airport or City:

Trip Planner

Search our weather history database for the weather conditions in past years. The results will help you decide how hot, cold, wet, or windy it might be!

Date:

Astronomy

Jan. 03, 2014 Rise Set
Actual Time 7:57 AM CST 4:52 PM CST
Civil Twilight 7:24 AM CST 5:25 PM CST
Nautical Twilight 6:47 AM CST 6:02 PM CST
Astronomical Twilight 6:11 AM CST 6:37 PM CST
Moon 9:16 AM CST (1/3) 8:10 PM CST (1/3)
Length of Visible Light 10h 01m
Length of Day
8h 54m
Waxing Crescent, 8% of the Moon is Illuminated
Jan 3
Waxing Crescent
Jan 7
First Quarter
Jan 15
Full
Jan 23
Last Quarter
Jan 30
New

Hourly Weather History & Observations

Time (CST) Temp. Windchill Dew Point Humidity Pressure Visibility Wind Dir Wind Speed Gust Speed Precip Events Conditions
12:14 AM -9.4 °F -25.6 °F -16.6 °F 71% 30.29 in 10.0 mi SSE 8.1 mph - N/A   Clear
12:33 AM -7.6 °F -24.6 °F -14.8 °F 71% 30.28 in 10.0 mi SSE 9.2 mph - N/A   Scattered Clouds
12:53 AM -7.6 °F -25.7 °F -13.0 °F 77% 30.26 in 10.0 mi SSE 10.4 mph - N/A   Scattered Clouds
1:13 AM -7.6 °F -25.7 °F -14.8 °F 71% 30.25 in 10.0 mi SSE 10.4 mph - N/A   Mostly Cloudy
1:33 AM -5.8 °F -24.4 °F -13.0 °F 71% 30.23 in 10.0 mi SSE 11.5 mph - N/A   Mostly Cloudy
1:54 AM -4.0 °F -23.0 °F -13.0 °F 65% 30.21 in 10.0 mi SSE 12.7 mph - N/A   Scattered Clouds
2:13 AM -4.0 °F -23.0 °F -13.0 °F 65% 30.19 in 10.0 mi SSE 12.7 mph - N/A   Scattered Clouds
2:33 AM -4.0 °F -23.7 °F -11.2 °F 71% 30.18 in 10.0 mi SSE 13.8 mph 18.4 mph N/A   Scattered Clouds
2:53 AM -2.2 °F -21.5 °F -9.4 °F 71% 30.16 in 10.0 mi SSE 13.8 mph 19.6 mph N/A   Mostly Cloudy
3:13 AM -2.2 °F -22.2 °F -9.4 °F 71% 30.13 in 10.0 mi SSE 15.0 mph - N/A   Scattered Clouds
3:33 AM -0.4 °F -19.9 °F -7.6 °F 72% 30.11 in 10.0 mi SSE 15.0 mph - N/A   Mostly Cloudy
3:53 AM 1.4 °F -18.8 °F -7.6 °F 66% 30.10 in 10.0 mi SSE 17.3 mph - N/A   Overcast
4:13 AM 1.4 °F -19.4 °F -5.8 °F 72% 30.07 in 10.0 mi SSE 18.4 mph - N/A   Overcast
4:34 AM 1.4 °F -18.2 °F -5.8 °F 72% 30.06 in 10.0 mi SSE 16.1 mph - N/A   Overcast
4:53 AM 3.2 °F -17.1 °F -4.0 °F 72% 30.03 in 10.0 mi SSE 18.4 mph 25.3 mph N/A   Overcast
5:13 AM 3.2 °F -16.5 °F -4.0 °F 72% 30.01 in 10.0 mi SSE 17.3 mph 21.9 mph N/A   Overcast
5:33 AM 3.2 °F -16.5 °F -4.0 °F 72% 29.99 in 10.0 mi SSE 17.3 mph 21.9 mph N/A   Overcast
5:53 AM 5.0 °F -14.2 °F -2.2 °F 72% 29.96 in 10.0 mi SSE 17.3 mph 21.9 mph N/A   Overcast
6:13 AM 5.0 °F -13.6 °F -0.4 °F 78% 29.95 in 10.0 mi SSE 16.1 mph 21.9 mph N/A   Overcast
6:33 AM 5.0 °F -14.2 °F -0.4 °F 78% 29.94 in 10.0 mi SSE 17.3 mph 23.0 mph N/A   Scattered Clouds
6:53 AM 5.0 °F -13.6 °F -0.4 °F 78% 29.92 in 10.0 mi SSE 16.1 mph 20.7 mph N/A   Mostly Cloudy
7:13 AM 6.8 °F -11.8 °F 1.4 °F 79% 29.90 in 4.0 mi SSE 17.3 mph - N/A   Haze
7:33 AM 6.8 °F -12.9 °F 1.4 °F 79% 29.88 in 2.5 mi SSE 19.6 mph - N/A Snow Light Snow
7:53 AM 8.6 °F -7.7 °F 3.2 °F 79% 29.87 in 1.2 mi SSE 13.8 mph - N/A Snow Light Snow
8:13 AM 8.6 °F -8.3 °F 3.2 °F 79% 29.86 in 1.2 mi SSE 15.0 mph 20.7 mph N/A Snow Light Snow
8:33 AM 8.6 °F -10.0 °F 3.2 °F 79% 29.83 in 1.0 mi SSE 18.4 mph 24.2 mph N/A Snow Light Snow
8:53 AM 10.4 °F -7.2 °F 5.0 °F 79% 29.81 in 1.0 mi SSE 17.3 mph - N/A Snow Light Snow
9:14 AM 12.2 °F -3.7 °F 8.6 °F 85% 29.79 in 1.0 mi South 15.0 mph 20.7 mph N/A Snow Light Snow
9:33 AM 12.2 °F -3.7 °F 8.6 °F 85% 29.77 in 0.8 mi South 15.0 mph 23.0 mph N/A Snow Light Snow
9:53 AM 12.2 °F -4.3 °F 8.6 °F 85% 29.76 in 1.0 mi South 16.1 mph 23.0 mph N/A Snow Light Snow
10:13 AM 15.8 °F 0.3 °F 10.4 °F 79% 29.76 in 0.8 mi South 16.1 mph 23.0 mph N/A Snow Light Snow
10:33 AM 15.8 °F -0.6 °F 12.2 °F 86% 29.73 in 1.0 mi South 18.4 mph - N/A Snow Light Snow
10:54 AM 15.8 °F -1.9 °F 12.2 °F 86% 29.71 in 0.5 mi South 21.9 mph 31.1 mph N/A Snow Light Snow
11:13 AM 15.8 °F -1.1 °F 12.2 °F 86% 29.69 in 0.8 mi South 19.6 mph 26.5 mph N/A Snow Light Snow
11:33 AM 15.8 °F -1.9 °F 12.2 °F 86% 29.66 in 0.8 mi South 21.9 mph 26.5 mph N/A Snow Light Snow
11:53 AM 17.6 °F -0.6 °F 14.0 °F 86% 29.63 in 0.8 mi South 25.3 mph 29.9 mph N/A   Overcast
12:13 PM 17.6 °F 0.5 °F 14.0 °F 86% 29.62 in 1.0 mi South 21.9 mph 28.8 mph N/A   Overcast
12:33 PM 17.6 °F 0.1 °F 14.0 °F 86% 29.60 in 1.2 mi South 23.0 mph 31.1 mph N/A   Overcast
12:53 PM 19.4 °F 5.0 °F 14.0 °F 80% 29.59 in 1.5 mi South 16.1 mph 25.3 mph N/A   Overcast
1:13 PM 19.4 °F 5.5 °F 15.8 °F 86% 29.57 in 1.5 mi South 15.0 mph 23.0 mph N/A   Overcast
1:33 PM 21.2 °F 8.3 °F 17.6 °F 86% 29.55 in 2.0 mi South 13.8 mph 20.7 mph N/A   Overcast
1:53 PM 21.2 °F 7.3 °F 17.6 °F 86% 29.52 in 1.8 mi South 16.1 mph 23.0 mph N/A   Overcast
2:13 PM 21.2 °F 7.3 °F 17.6 °F 86% 29.51 in 2.5 mi South 16.1 mph 24.2 mph N/A   Overcast
2:33 PM 21.2 °F 7.3 °F 17.6 °F 86% 29.50 in 7.0 mi South 16.1 mph 23.0 mph N/A   Mostly Cloudy
2:53 PM 23.0 °F 10.6 °F 19.4 °F 86% 29.50 in 10.0 mi South 13.8 mph - N/A   Mostly Cloudy
3:13 PM 23.0 °F 10.1 °F 19.4 °F 86% 29.49 in 5.0 mi South 15.0 mph 25.3 mph N/A   Mostly Cloudy
3:33 PM 23.0 °F 8.7 °F 19.4 °F 86% 29.49 in 7.0 mi South 18.4 mph 25.3 mph N/A   Mostly Cloudy
3:53 PM 23.0 °F 9.2 °F 19.4 °F 86% 29.48 in 10.0 mi South 17.3 mph 26.5 mph N/A   Scattered Clouds
4:14 PM 23.0 °F 10.6 °F 19.4 °F 86% 29.48 in 10.0 mi South 13.8 mph 23.0 mph N/A   Scattered Clouds
4:33 PM 24.8 °F 12.4 °F 19.4 °F 80% 29.48 in 10.0 mi South 15.0 mph 19.6 mph N/A   Clear
4:53 PM 24.8 °F 14.0 °F 19.4 °F 80% 29.47 in 10.0 mi South 11.5 mph - N/A   Clear
5:13 PM 24.8 °F 15.3 °F 19.4 °F 80% 29.46 in 10.0 mi South 9.2 mph - N/A   Scattered Clouds
5:33 PM 26.6 °F 16.8 °F 21.2 °F 80% 29.47 in 10.0 mi South 10.4 mph - N/A   Scattered Clouds
5:53 PM 26.6 °F 15.7 °F 21.2 °F 80% 29.45 in 10.0 mi South 12.7 mph - N/A   Scattered Clouds
6:13 PM 26.6 °F 15.2 °F 21.2 °F 80% 29.45 in 10.0 mi South 13.8 mph - N/A   Scattered Clouds
6:33 PM 28.4 °F 17.5 °F 23.0 °F 80% 29.43 in 10.0 mi South 13.8 mph - N/A   Scattered Clouds
6:53 PM 28.4 °F 17.5 °F 23.0 °F 80% 29.43 in 10.0 mi South 13.8 mph - N/A   Clear
7:14 PM 28.4 °F 17.5 °F 23.0 °F 80% 29.42 in 10.0 mi South 13.8 mph 20.7 mph N/A   Scattered Clouds
7:33 PM 30.2 °F 19.8 °F 26.6 °F 86% 29.42 in 10.0 mi South 13.8 mph - N/A   Scattered Clouds
7:53 PM 30.2 °F 20.2 °F 26.6 °F 86% 29.41 in 10.0 mi South 12.7 mph - N/A   Mostly Cloudy
8:13 PM 30.2 °F 19.8 °F 26.6 °F 86% 29.41 in 7.0 mi South 13.8 mph - N/A   Overcast
8:33 PM 32.0 °F 21.6 °F 28.4 °F 87% 29.40 in 5.0 mi South 15.0 mph - N/A   Overcast
8:53 PM 32.0 °F 21.6 °F 28.4 °F 87% 29.40 in 7.0 mi SSW 15.0 mph - N/A Snow Light Snow
9:13 PM 32.0 °F 22.1 °F 28.4 °F 87% 29.40 in 7.0 mi SSW 13.8 mph - N/A   Overcast
9:33 PM 32.0 °F 23.0 °F 30.2 °F 93% 29.40 in 4.0 mi SSW 11.5 mph - 0.01 in   Overcast
9:53 PM 32.0 °F 24.2 °F 30.2 °F 93% 29.40 in 4.0 mi SSW 9.2 mph - 0.02 in   Overcast
10:13 PM 33.8 °F 25.8 °F 32.0 °F 93% 29.39 in 4.0 mi SSW 10.4 mph - N/A   Overcast
10:33 PM 33.8 °F 27.0 °F 32.0 °F 93% 29.39 in 7.0 mi SW 8.1 mph - 0.02 in   Overcast
10:53 PM 33.8 °F 27.0 °F 32.0 °F 93% 29.37 in 7.0 mi SW 8.1 mph - 0.02 in   Overcast
11:13 PM 33.8 °F 27.7 °F 32.0 °F 93% 29.36 in 10.0 mi SSW 6.9 mph - N/A   Scattered Clouds
11:33 PM 33.8 °F 28.6 °F 32.0 °F 93% 29.37 in 10.0 mi SW 5.8 mph - N/A   Mostly Cloudy
11:54 PM 33.8 °F 27.0 °F 32.0 °F 93% 29.39 in 10.0 mi SW 8.1 mph - 0.02 in   Scattered Clouds